Change the Weather History Date:

Wednesday, January 2, 2008

  Actual Average Record
Temperature  
Mean Temperature 26 °F -  
Max Temperature 30 °F 36 °F 63 °F (2005)
Min Temperature 19 °F 25 °F 8 °F (2001)
Degree Days  
Heating Degree Days 40    
Moisture  
Dew Point 16 °F    
Average Humidity 70    
Maximum Humidity 93    
Minimum Humidity 55    
Precipitation  
Precipitation 0.03 in - - ()
Sea Level Pressure  
Sea Level Pressure 30.33 in    
Wind  
Wind Speed 17 mph (NNW)    
Max Wind Speed 28 mph    
Max Gust Speed 36 mph    
Visibility 7 miles    
Events Fog , Snow    
Averages and records for this station are not official NWS values.
T = Trace of Precipitation, MM = Missing Value Source: NWS Daily Summary

Daily Weather History Graph

Daily Weather History Graph

Search for Another Location

Airport or City:

Trip Planner

Search our weather history database for the weather conditions in past years. The results will help you decide how hot, cold, wet, or windy it might be!

Date:

Astronomy

Jan. 02, 2008 Rise Set
Actual Time 7:53 AM EST 5:08 PM EST
Civil Twilight 7:22 AM EST 5:39 PM EST
Nautical Twilight 6:47 AM EST 6:14 PM EST
Astronomical Twilight 6:13 AM EST 6:47 PM EST
Moon 2:40 AM EST (1/2) 12:45 PM EST (1/2)
Length of Visible Light 10h 17m
Length of Day
9h 14m
Waning Crescent, 28% of the Moon is Illuminated
Jan 2
Waning Crescent
Jan 8
New
Jan 15
First Quarter
Jan 22
Full
Jan 30
Last Quarter

Hourly Weather History & Observations

Time (EST) Temp. Windchill Dew Point Humidity Pressure Visibility Wind Dir Wind Speed Gust Speed Precip Events Conditions
12:21 AM 23.0 °F 9.6 °F 19.4 °F 86% 30.02 in 0.5 mi WSW 16.1 mph - 0.01 in Fog , Snow Snow
12:32 AM 23.0 °F 10.1 °F 19.4 °F 86% 30.03 in 0.2 mi WSW 15.0 mph - 0.02 in Fog , Snow Snow
12:45 AM 21.2 °F 9.5 °F 19.4 °F 93% 30.02 in 0.5 mi SW 11.5 mph - 0.03 in Fog , Snow Snow
12:53 AM 21.9 °F 8.7 °F 19.0 °F 89% 30.05 in 0.5 mi SW 15.0 mph - 0.03 in Fog , Snow Snow
1:06 AM 23.0 °F 10.1 °F 19.4 °F 86% 30.02 in 0.8 mi WSW 15.0 mph - 0.00 in Snow Light Snow
1:14 AM 23.0 °F 10.6 °F 19.4 °F 86% 30.03 in 1.0 mi SW 13.8 mph - 0.00 in Snow Light Snow
1:29 AM 23.0 °F 11.1 °F 19.4 °F 86% 30.03 in 1.2 mi WSW 12.7 mph - 0.00 in   Overcast
1:50 AM 24.8 °F 17.9 °F 19.4 °F 80% 30.03 in 3.0 mi West 5.8 mph - 0.00 in   Overcast
1:53 AM 24.1 °F 14.4 °F 19.9 °F 84% 30.05 in 5.0 mi NNW 9.2 mph - 0.00 in   Overcast
2:14 AM 30.2 °F 17.4 °F 21.2 °F 69% 30.03 in 10.0 mi North 20.7 mph 25.3 mph N/A   Overcast
2:53 AM 28.9 °F 15.1 °F 21.0 °F 72% 30.07 in 9.0 mi North 23.0 mph 27.6 mph N/A   Overcast
3:13 AM 28.4 °F 15.4 °F 21.2 °F 74% 30.06 in 9.0 mi North 19.6 mph - N/A   Overcast
3:23 AM 28.4 °F 14.1 °F 21.2 °F 74% 30.06 in 6.0 mi North 24.2 mph 28.8 mph N/A   Haze
3:30 AM 28.4 °F 14.4 °F 19.4 °F 69% 30.06 in 6.0 mi North 23.0 mph 28.8 mph N/A   Haze
3:53 AM 28.9 °F 14.0 °F 21.0 °F 72% 30.09 in 4.0 mi North 27.6 mph 31.1 mph N/A   Haze
4:53 AM 27.0 °F 12.2 °F 19.9 °F 75% 30.12 in 7.0 mi NNW 24.2 mph - 0.00 in   Overcast
5:53 AM 27.0 °F 11.9 °F 19.0 °F 72% 30.17 in 7.0 mi North 25.3 mph 33.4 mph N/A   Overcast
6:43 AM 26.6 °F 10.8 °F 14.0 °F 59% 30.19 in 10.0 mi North 27.6 mph - N/A   Mostly Cloudy
6:53 AM 26.1 °F 10.4 °F 12.9 °F 58% 30.22 in 10.0 mi North 26.5 mph 35.7 mph N/A   Mostly Cloudy
7:53 AM 25.0 °F 8.9 °F 10.9 °F 55% 30.27 in 10.0 mi North 26.5 mph 31.1 mph N/A   Overcast
8:53 AM 26.1 °F 11.0 °F 15.1 °F 63% 30.30 in 8.0 mi North 24.2 mph 29.9 mph N/A   Overcast
9:53 AM 25.0 °F 10.2 °F 15.1 °F 66% 30.34 in 10.0 mi North 21.9 mph 29.9 mph N/A   Mostly Cloudy
10:50 AM 24.8 °F 9.6 °F 15.8 °F 69% 30.35 in 10.0 mi North 23.0 mph - N/A   Overcast
10:53 AM 25.0 °F 10.2 °F 15.1 °F 66% 30.38 in 10.0 mi North 21.9 mph 26.5 mph N/A   Overcast
11:23 AM 24.8 °F 10.0 °F 15.8 °F 69% 30.36 in 10.0 mi North 21.9 mph - N/A   Overcast
11:30 AM 24.8 °F 10.7 °F 15.8 °F 69% 30.36 in 10.0 mi North 19.6 mph - N/A   Overcast
11:53 AM 25.0 °F 11.3 °F 14.0 °F 63% 30.39 in 10.0 mi North 18.4 mph - N/A   Overcast
12:53 PM 25.0 °F 10.9 °F 15.1 °F 66% 30.41 in 9.0 mi North 19.6 mph - 0.00 in   Overcast
1:53 PM 25.0 °F 12.2 °F 12.9 °F 60% 30.43 in 10.0 mi North 16.1 mph - N/A   Mostly Cloudy
2:53 PM 24.1 °F 11.5 °F 12.9 °F 62% 30.46 in 10.0 mi NNW 15.0 mph - N/A   Mostly Cloudy
3:06 PM 24.8 °F 11.9 °F 12.2 °F 59% 30.44 in 10.0 mi North 16.1 mph - N/A   Mostly Cloudy
3:53 PM 24.1 °F 11.0 °F 12.9 °F 62% 30.48 in 10.0 mi NNW 16.1 mph - N/A   Mostly Cloudy
4:53 PM 23.0 °F 8.7 °F 12.9 °F 65% 30.51 in 10.0 mi NNW 18.4 mph - N/A   Mostly Cloudy
5:53 PM 23.0 °F 9.6 °F 12.9 °F 65% 30.53 in 10.0 mi North 16.1 mph - N/A   Mostly Cloudy
6:53 PM 24.1 °F 12.0 °F 14.0 °F 65% 30.56 in 10.0 mi North 13.8 mph - N/A   Overcast
7:18 PM 24.8 °F 13.4 °F 14.0 °F 64% 30.54 in 10.0 mi NNW 12.7 mph - N/A   Overcast
7:25 PM 24.8 °F 12.9 °F 14.0 °F 64% 30.54 in 10.0 mi NNW 13.8 mph - N/A   Overcast
7:35 PM 24.8 °F 11.9 °F 12.2 °F 59% 30.54 in 10.0 mi NW 16.1 mph - N/A   Overcast
7:53 PM 24.1 °F 11.5 °F 14.0 °F 65% 30.58 in 10.0 mi NNW 15.0 mph - N/A   Overcast
8:36 PM 24.8 °F 12.9 °F 14.0 °F 64% 30.56 in 10.0 mi North 13.8 mph - N/A   Overcast
8:53 PM 25.0 °F 13.1 °F 14.0 °F 63% 30.59 in 9.0 mi NW 13.8 mph - 0.00 in Snow Light Snow
9:16 PM 24.8 °F 14.6 °F 14.0 °F 64% 30.56 in 8.0 mi NNW 10.4 mph 19.6 mph 0.00 in Snow Light Snow
9:26 PM 24.8 °F 12.4 °F 14.0 °F 64% 30.57 in 8.0 mi NW 15.0 mph - 0.00 in Snow Light Snow
9:53 PM 24.1 °F 12.5 °F 14.0 °F 65% 30.60 in 9.0 mi NNW 12.7 mph - 0.00 in Snow Light Snow
10:53 PM 24.1 °F 10.6 °F 15.1 °F 69% 30.61 in 3.0 mi NW 17.3 mph - 0.00 in Snow Light Snow
10:56 PM 24.8 °F 11.5 °F 15.8 °F 69% 30.58 in 1.8 mi WNW 17.3 mph - 0.00 in Snow Light Snow
11:13 PM 21.2 °F 8.9 °F 15.8 °F 80% 30.59 in 3.0 mi WSW 12.7 mph - 0.00 in Snow Light Snow
11:22 PM 21.2 °F 8.9 °F 14.0 °F 74% 30.59 in 9.0 mi SW 12.7 mph - 0.00 in   Overcast
11:53 PM 19.0 °F 5.6 °F 14.0 °F 81% 30.63 in 6.0 mi SW 13.8 mph - 0.00 in Snow Light Snow